Regional Weather Roundup
Issued by NWS

Home | Current Version | Previous Version | Graphics & Text | Print | Product List | Glossary On
Versions: 1 2 3 4 5 6 7 8 9 10 11 12 13 14 15 16 17 18 19 20 21 22 23 24 25 26 27 28 29 30 31 32 33 34 35 36 37 38 39 40 41 42 43 44 45 46 47 48 49 50
000
ASUS45 KTFX 282310
RWRMT
MONTANA REGIONAL WEATHER ROUNDUP
NATIONAL WEATHER SERVICE GREAT FALLS MT
500 PM MDT FRI APR 28 2017

NOTE: "FAIR" INDICATES FEW OR NO CLOUDS BELOW 12000 FEET WITH NO
SIGNIFICANT WEATHER AND/OR OBSTRUCTIONS TO VISIBILITY.

MTZ001>007-043-290000-
WEST OF THE DIVIDE

CITY           SKY/WX    TMP DP  RH WIND       PRES   REMARKS
KALISPELL      PTSUNNY   48  38  68 S9        30.12R
MISSOULA       CLOUDY    52  32  46 N8        30.12S
BUTTE          CLOUDY    45  18  34 N7        30.07R
MULLAN PASS    FOG       32  31  96 VRB5      30.14S VSB 1/4
ANACONDA         N/A     45  19  36 N8        30.08R
DEER LODGE       N/A     46  23  39 NW8       30.11R
EUREKA           N/A     46  37  71 N7        30.13R
HAMILTON         N/A     48  27  43 W6        30.12R
LIBBY            N/A     54  28  37 W6        30.09R
PLAINS           N/A     52  34  50 NW2       30.14S
$$

MTZ008-052>055-290000-
SOUTHWEST MONTANA

CITY           SKY/WX    TMP DP  RH WIND       PRES   REMARKS
BOZEMAN        CLOUDY    45  35  68 S12       30.06R
DILLON         PTSUNNY   49  21  33 N18       30.03R
W YELLOWSTONE  CLOUDY    37  23  56 N12G22    30.00R WCI  30
ENNIS          PTSUNNY   45  30  57 N16G23    30.08
TWIN BRIDGES     N/A     49  21  33 N13       30.03R
$$

MTZ009-010-012-014-046-048-049-054-290000-
EAST SLOPES AND CENTRAL MONTANA

CITY           SKY/WX    TMP DP  RH WIND       PRES   REMARKS
CUT BANK       MOSUNNY   46  28  49 VRB6      30.10F
GREAT FALLS    CLOUDY    42  36  79 SE9       30.12R
MALMSTROM AFB  PTSUNNY   40  38  90 SE10      30.12R
HELENA         CLOUDY    50  31  48 E3        30.07R
AUGUSTA          N/A     42  32  67 N9        30.11R
BOWMANS CRNR   LGT RAIN  41  34  75 NE10      30.09R
CHOTEAU          N/A     46  32  57 N7        30.13R
FAIRFIELD      PTSUNNY   46  33  60 N10       30.11R
POWER          PTSUNNY   47  32  57 N13       30.10R
RAYNESFORD     LGT RAIN  38  35  89 SW5       30.12R
ULM            PTSUNNY   44  39  84 W12       30.12R
$$

MTZ011-013-016-021-045-047-050-051-290000-
NORTH CENTRAL MONTANA

CITY           SKY/WX    TMP DP  RH WIND       PRES   REMARKS
HAVRE          CLOUDY    50  31  48 W6        30.10S
LEWISTOWN      CLOUDY    48  30  49 VRB5      30.08R
N BAR RANCH    CLOUDY    41  32  70 S6        30.11R
CHINOOK          N/A     52  34  50 NW12G17   30.09S
DENTON         CLOUDY    42  36  79 MISG      30.08R
FORT BENTON      N/A     48  37  66 MISG      30.13R
GEYSER         CLOUDY    41  35  81 W12       30.11R
GRASS RANGE    PTSUNNY   46  35  63 CALM      30.05S
JUDITH GAP     PTSUNNY   44  28  53 NE10      30.07R
STANFORD       PTSUNNY   45  35  68 NW10      30.09R
WINIFRED       PTSUNNY   43  37  79 N15       30.09R
$$

MTZ017>020-022>027-061-062-290000-
NORTHEAST MONTANA

CITY           SKY/WX    TMP DP  RH WIND       PRES   REMARKS
GLASGOW        CLOUDY    57  23  26 SW7       30.05R
JORDAN           N/A     54  24  31 CALM      30.06R
SIDNEY         MOSUNNY   56  17  21 CALM      30.08R
WOLF POINT     CLOUDY    58  15  18 E3        30.06R
MALTA          PTSUNNY   54  36  50 N14G21    30.06R
PLENTYWOOD       N/A     57  18  21 E3        30.06R
POPLAR           N/A     57  18  21 CALM      30.06S
SCOBEY           N/A     57  18  22 S7        30.04R
$$

MTZ028>42-056>058-290000-
SOUTHCENTRAL AND SOUTHEAST MONTANA

CITY           SKY/WX    TMP DP  RH WIND       PRES   REMARKS
BAKER          SUNNY     52  17  25 CALM      30.07R
BILLINGS       CLOUDY    43  35  73 NW6       30.09R
LIVINGSTON     CLOUDY    43  32  65 E9        30.06R
MILES CITY     MOSUNNY   53  23  31 CALM      30.07R
BIG TIMBER     CLOUDY    41  36  81 S10       30.11R
EKALAKA          N/A     49  20  32 E1        30.04R
LAUREL           N/A     42  26  53 CALM      30.08F
ROUNDUP          N/A     44  35  70 SE7       30.01R
$$

REGIONAL REPORTS...DAKOTAS

CITY           SKY/WX    TMP DP  RH WIND       PRES   REMARKS
WILLISTON      SUNNY     58  13  17 SW5       30.08R
MINOT          SUNNY     58  15  18 N9        30.07R
DICKINSON      SUNNY     52  14  22 CALM      30.05R
BEACH            N/A     54  16  22 E6G13     30.10R
TIOGA            N/A     54  16  22 SW6       30.08S
WATFORD CITY     N/A     55  21  26 SE5       30.07R
BISMARCK       SUNNY     56  12  17 NE6       30.08R
GRAND FORKS    MOSUNNY   55  25  31 N18       30.04R
FARGO          SUNNY     54  23  30 N14G22    30.04R
BUFFALO SD       N/A     50  24  36 E8        30.00R
RAPID CITY     CLOUDY    46  27  47 NE9       30.04R
$$

REGIONAL REPORTS...WYOMING/IDAHO/WASHINGTON

CITY           SKY/WX    TMP DP  RH WIND       PRES   REMARKS
GILLETTE       CLOUDY    36  31  82 W5        30.05R
SHERIDAN       CLOUDY    36  33  89 SW6       30.10R WCI  31
BUFFALO WY     LGT SNOW  34  29  82 W9        30.08R WCI  27
CODY           CLOUDY    38  31  76 N18       30.04S WCI  28
YELLOWSTONE LA   N/A     34  22  61 CALM      29.98R
IDAHO FALLS    CLOUDY    49  26  41 N21       29.95R
SALMON         CLOUDY    54  23  30 N13G24    30.04R
BOISE          MOSUNNY   57  30  35 N23G37    30.07S
SPOKANE        PTSUNNY   55  32  41 SW12      30.14F
$$

REGIONAL REPORTS...ALBERTA

CITY           SKY/WX    TMP DP  RH WIND       PRES   REMARKS
EDMONTON       CLOUDY    48  27  43 CALM      30.08S
CALGARY        PTSUNNY   46  25  42 NW6       30.06S
LETHBRIDGE     PTSUNNY   50  30  46 SW3       30.08F
MEDICINE HAT   CLOUDY    46  27  46 W12       30.10S
WATERTON GATE    N/A     48  30  49 E5          N/A
CARDSTON         N/A     50  28  43 S2          N/A
MILK RIVER       N/A     48  28  46 N8          N/A
ONEFOUR          N/A     46  28  49 NW12        N/A
$$

REGIONAL REPORTS...SASKATCHEWAN

CITY           SKY/WX    TMP DP  RH WIND       PRES   REMARKS
SWIFT CURRENT  CLOUDY    46  27  46 W12G18    30.06S
REGINA         PTSUNNY   57  23  26 SW5       30.02S
SASKATOON      PTSUNNY   48  28  46 S3        30.06F
VAL MARIE        N/A     46  36  66 N15         N/A
ROCKGLEN         N/A     50  27  40 N3          N/A
ASSINIBOIA       N/A     48  25  40 NE6         N/A
$$



USA.gov is the U.S. government's official web portal to all federal, state and local government web resources and services.